User: anonymous   Login
Location: Unspecified
(0.0000°N, 0.0000°E)
Time: 23:53:35
(UTC+00:00)
Language:

STARLINK-31949 - Orbit

View from above orbital plane
View from above orbital plane
View from above satellite
View from above satellite

Ground track
Ground track

The orbit is defined by the following mean orbital elements,

1 59891U          26145.42817947 +.00000000 +00000-0 +59139-4 0 00006
2 59891  43.0013  51.9584 0001175 273.9376  86.1342 15.27576586    04
Epoch (UTC): 25 May 2026 10:16:34
Eccentricity: 0.0001175
inclination: 43.0013°
perigee height: 482 km
apogee height: 484 km
right ascension of ascending node: 51.9584°
argument of perigee: 273.9376°
revolutions per day: 15.27576586
mean anomaly at epoch: 86.1342°

The dashed part of the orbit path shows where the satellite is in the earth's shadow,  

DLR